Flag for Germany Weather past 2 weeks in Böblingen, Baden-Württemberg, Germany

Now
61 °F

Sprinkles. Passing clouds.


Feels Like: 61 °F
Forecast: 50 / 66 °F
Wind: 2 mph from North

Location: Stuttgart-Echterdingen

Current Time: Sep 3, 2015 at 1:58:53 AM

Latest Report: Sep 3, 2015 at 1:20 AM


Visibility: N/A

Pressure: 29.98 "Hg

Humidity: 77%

Dew point: 54 °F

Location of BöblingenLocation

Historic Weather in Böblingen — Graph

°F

Böblingen temperature yesterday

Maximum temperature yesterday: 68 °F (at 2:50 PM)
Minimum temperature yesterday: 54 °F (at 3:50 AM)
Average temperature yesterday: 61 °F

Past Weeks' High & Low Weather Summary

 TemperatureHumidityPressure
High91 °F (Aug 30, 2:20 PM)100% (Aug 20, 4:50 AM)30.27 "Hg (Aug 20, 4:50 AM)
Low48 °F (Aug 26, 4:50 AM)20% (Aug 31, 5:20 PM)29.71 "Hg (Aug 24, 1:50 PM)
Average68 °F67%30.04 "Hg
* Reported Aug 19 12:20 AM — Sep 3 12:20 AM, Böblingen, Weather by CustomWeather, © 2015

Note: Actual official high and low records may vary slightly from our data, if they occured in-between our weather recording intervals... More about our weather records

Advertising

Böblingen weather history for previous 24 hours

 ConditionsComfort  
Time TempWeatherWind HumidityBarometerVisibility
12:20 AM
Thu, Sep 3
61 °FClear.2 mph77%29.98 "Hg10 mi
11:50 PM
Wed, Sep 2
61 °FPassing clouds.3 mph77%30.01 "HgN/A
11:20 PM61 °FClear.2 mph72%30.01 "Hg10 mi
10:50 PM63 °FPassing clouds.1 mph68%30.01 "HgN/A
10:20 PM63 °FPassing clouds.2 mph73%30.01 "HgN/A
9:50 PM63 °FClear.1 mph68%30.01 "Hg10 mi
9:20 PM64 °FPassing clouds.3 mph60%30.01 "HgN/A
8:50 PM64 °FPassing clouds.6 mph60%30.01 "HgN/A
8:20 PM64 °FSunny.5 mph60%30.01 "Hg10 mi
7:50 PM66 °FPassing clouds.6 mph56%30.01 "HgN/A
7:20 PM66 °FPassing clouds.6 mph56%30.01 "HgN/A
6:50 PM66 °FPassing clouds.6 mph56%30.01 "HgN/A
6:20 PM68 °FPassing clouds.7 mph53%30.01 "HgN/A
5:20 PM68 °FScattered clouds.6 mph49%30.01 "HgN/A
4:50 PM68 °FScattered clouds.8 mph56%30.01 "HgN/A
4:20 PM68 °FScattered clouds.7 mph56%30.01 "HgN/A
3:50 PM68 °FPassing clouds.3 mph49%30.01 "HgN/A
3:20 PM68 °FPassing clouds.5 mph56%30.01 "HgN/A
2:50 PM68 °FScattered clouds.3 mph56%30.01 "HgN/A
2:20 PM66 °FScattered clouds.6 mph60%30.04 "HgN/A
1:50 PM66 °FPartly sunny.6 mph64%30.04 "HgN/A
1:20 PM64 °FScattered clouds.6 mph68%30.04 "HgN/A
12:50 PM64 °FScattered clouds.6 mph68%30.04 "HgN/A
12:20 PM64 °FScattered clouds.6 mph68%30.07 "HgN/A
11:50 AM64 °FScattered clouds.5 mph73%30.07 "HgN/A
11:20 AM63 °FScattered clouds.5 mph77%30.07 "HgN/A
10:50 AM63 °FScattered clouds.5 mph77%30.07 "HgN/A
10:20 AM59 °FScattered clouds.6 mph88%30.07 "HgN/A
9:50 AM59 °FScattered clouds.3 mph88%30.07 "HgN/A
9:20 AM59 °FScattered clouds.3 mph94%30.07 "HgN/A
8:50 AM59 °FScattered clouds.2 mph88%30.07 "HgN/A
8:20 AM57 °FPartly sunny.2 mph94%30.07 "HgN/A
7:50 AM55 °FPartly sunny.2 mph94%30.07 "HgN/A
7:20 AM54 °FPassing clouds.2 mph100%30.07 "HgN/A
6:50 AM54 °FPassing clouds.6 mph94%30.07 "HgN/A
6:20 AM54 °FPartly cloudy.6 mph100%30.07 "HgN/A
5:50 AM54 °FPartly cloudy.2 mph94%30.07 "HgN/A
5:20 AM54 °FPartly cloudy.1 mph100%30.07 "HgN/A
4:50 AM54 °FPassing clouds.2 mph94%30.07 "HgN/A
4:20 AM55 °FPassing clouds.2 mph94%30.07 "HgN/A
3:50 AM54 °FPassing clouds.1 mph100%30.07 "HgN/A
3:20 AM55 °FPassing clouds.2 mph94%30.07 "HgN/A
2:50 AM55 °FPassing clouds.2 mph100%30.07 "HgN/A
2:20 AM55 °FPassing clouds.2 mph94%30.07 "HgN/A
1:50 AM57 °FPassing clouds.3 mph94%30.07 "HgN/A
1:20 AM57 °FPassing clouds.5 mph94%30.07 "HgN/A
Weather by CustomWeather, © 2015

See weather overviewHow to use our weather pages